This demonstration page uses our WeatherBlox Daily Observations layout. Learn more.

Left ArrowRight Arrow

44.8408, -93.29828

Hourly Observations for July 12, 2016

Temp ( °F °C ) Dew Point ( °F °C ) Humidity (%) Winds ( mph kmh ) Pressure ( in mb ) Visibility ( mi km ) Precip ( " mm )
12:53 am 00:53 Cloudy 83 28.3 71 21.7 67 67 WSW 12 19 29.57 1001 10 16 0.00 0.03
1:53 am 01:53 Cloudy with Light Rain 78 25.6 73 22.8 85 85 VRB 3 6 29.57 1002 10 16 0.08 2.03
2:53 am 02:53 Cloudy 76 24.4 71 21.7 85 85 S 10 17 29.57 1002 10 16 0.00 0.03
3:53 am 03:53 Cloudy 73 22.8 67 19.4 81 81 SSW 8 13 29.57 1001 10 16 0.00 0.00
4:53 am 04:53 Cloudy 73 22.8 67 19.4 81 81 SW 13 20 29.60 1002 10 16 0.00 0.00
5:53 am 05:53 Cloudy 73 22.8 68 20 84 84 WSW 15 24 29.62 1003 10 16 0.00 0.00
6:10 am 06:10 Cloudy 73 22.8 68 20 84 84 WSW 15 24 29.62 1003 10 16 0.00 0.00
6:34 am 06:34 Cloudy 73 23 68 20 83 83 W 14 22 29.62 1003 10 16 0.00 0.00
6:53 am 06:53 Mostly Cloudy 73 22.8 66 18.9 79 79 W 13 20 29.65 1004 10 16 0.00 0.00
7:08 am 07:08 Mostly Cloudy 73 23 64 18 74 74 W 14 22 29.65 1004 10 16 0.00 0.00
7:53 am 07:53 Mostly Cloudy 72 22.2 61 16.1 68 68 W 12 19 29.68 1005 10 16 0.00 0.00
8:53 am 08:53 Mostly Cloudy 73 22.8 60 15.6 64 64 WSW 12 19 29.70 1006 10 16 0.00 0.00
9:53 am 09:53 Partly Cloudy 76 24.4 58 14.4 54 54 W 10 17 29.71 1006 10 16 0.00 0.00
10:53 am 10:53 Partly Cloudy 78 25.6 58 14.4 50 50 WSW 14 22 29.72 1007 10 16 0.00 0.00
11:53 am 11:53 Mostly Sunny 80 26.7 55 12.8 42 42 W 17 28 29.72 1006 10 16 0.00 0.00
12:53 pm 12:53 Mostly Sunny 82 27.8 57 13.9 42 42 WSW 15 24 29.70 1006 10 16 0.00 0.00
1:53 pm 13:53 Sunny 84 28.9 57 13.9 40 40 W 21 33 29.70 1006 10 16 0.00 0.00
2:53 pm 14:53 Mostly Sunny 85 29.4 56 13.3 37 37 W 15 24 29.71 1006 10 16 0.00 0.00
3:53 pm 15:53 Sunny 85 29.4 56 13.3 37 37 W 16 26 29.71 1006 10 16 0.00 0.00
4:53 pm 16:53 Sunny 86 30 54 12.2 33 33 W 21 33 29.71 1006 10 16 0.00 0.00
5:53 pm 17:53 Sunny 85 29.4 53 11.7 33 33 W 17 28 29.72 1006 10 16 0.00 0.00
6:53 pm 18:53 Sunny 85 29.4 56 13.3 37 37 W 15 24 29.72 1006 10 16 0.00 0.00
7:53 pm 19:53 Sunny 83 28.3 55 12.8 38 38 WSW 13 20 29.72 1007 10 16 0.00 0.00
8:53 pm 20:53 Sunny 81 27.2 57 13.9 44 44 SW 12 19 29.72 1007 10 16 0.00 0.00
9:53 pm 21:53 Clear 79 26.1 58 14.4 49 49 SSW 9 15 29.74 1007 10 16 0.00 0.00
10:53 pm 22:53 Clear 77 25 57 13.9 50 50 SSW 12 19 29.74 1007 10 16 0.00 0.00
11:53 pm 23:53 Clear 77 25 58 14.4 52 52 SSW 10 17 29.74 1007 10 16 0.00 0.00

Powered by AerisWeather